Tracking 30922 objects as of 2-Jul-2025
HD Live streaming from Space Station
objects crossing your sky now

ARIANE 44LP DEB

Track ARIANE 44LP DEB now!


NORAD ID: 25279
Int'l Code: 1989-062E
Perigee: 378.8 km
Apogee: 32,101.5 km
Inclination: 7.0 °
Period: 564.0 minutes
Semi major axis: 22611 km
RCS: 30.4803 m2 (large)
Launch date: August 8, 1989
Source: France (FR)
Launch site: FRENCH GUIANA (FRGUI)

Note: This is SATELLITE DEBRIS
Your satellite tracking list
STARLINK-5672
Track 1 satellite(s)




NASA's NSSDC Master Catalog

Two Line Element Set (TLE):
1 25279U 89062E   25182.57400016  .00000475  00000-0  11227-2 0  9992
2 25279   7.0152 195.6413 7014845 210.4565  76.9740  2.55340667255039
Source of the keplerian elements: AFSPC